GFSGL_sfc_dewp_297.txt.gz
Dewpoint
60 60 60 61 56 56 56 56 57 58 58 58 58 58 58 58 59 60 61 62 63 64 64 63 62 67 68 71 73 72 70 70 69 69 70 68 69 70 70 66 69 69 69
57 58 56 57 55 54 55 56 57 57 58 57 57 58 58 58 57 57 57 57 57 56 60 62 63 63 62 61 61 70 73 71 70 69 69 69 68 68 69 70 70 69 66
58 58 57 57 54 54 55 56 57 57 56 55 56 55 56 56 56 55 55 55 55 56 57 56 56 58 62 61 59 59 59 70 72 71 69 70 70 70 69 70 70 70 69
58 59 57 56 56 55 56 56 57 57 56 55 55 55 56 56 54 53 53 53 53 54 54 54 53 54 55 56 61 60 58 67 69 70 71 70 70 70 71 69 69 71 69
54 53 53 54 55 55 55 56 56 56 56 56 55 55 55 54 52 53 53 53 54 53 53 53 54 55 59 58 57 57 60 58 55 54 57 59 66 69 69 68 69 69 66
53 53 53 53 53 54 55 56 56 55 55 55 54 53 54 52 54 56 54 51 51 51 51 52 52 56 55 57 58 61 61 59 57 54 52 49 48 56 68 70 69 68 67
53 52 53 54 53 53 54 55 54 54 55 54 54 53 53 51 54 55 55 50 50 50 51 51 52 53 55 54 55 57 57 60 61 59 56 54 53 53 61 67 69 70 69
52 52 53 54 54 55 55 55 55 55 55 53 53 53 53 52 54 54 54 50 48 48 49 51 51 52 53 54 53 53 52 52 54 58 57 57 57 57 57 59 66 68 70
53 53 54 54 55 55 55 55 56 56 55 54 54 53 53 51 52 53 52 48 47 46 47 49 51 52 54 55 55 54 53 53 54 56 56 57 57 57 57 54 53 65 66
53 54 55 56 56 56 56 56 57 57 56 55 55 54 53 51 51 51 51 48 47 46 46 47 52 53 54 54 54 54 53 53 53 54 56 57 57 57 59 58 55 57 63
55 55 56 56 57 57 58 58 58 57 57 55 55 53 51 50 49 50 51 48 47 46 47 47 48 51 51 52 53 53 53 53 53 52 52 52 53 58 58 58 61 59 58
56 56 57 57 57 57 56 56 57 57 56 55 54 52 50 50 50 50 50 50 50 48 48 48 48 49 49 50 52 52 52 53 53 52 52 53 53 53 54 58 61 67 68
55 55 55 56 56 57 56 56 56 55 54 52 49 47 47 48 49 50 50 49 50 51 50 51 51 49 48 49 52 52 52 52 52 51 50 49 51 53 54 59 67 67 67
54 54 55 55 55 52 50 52 54 53 50 48 48 47 46 48 50 51 47 48 49 49 50 48 49 50 50 51 52 53 53 52 52 51 50 50 51 54 53 53 63 65 67
54 54 53 53 51 50 50 51 50 50 49 48 47 46 50 50 50 49 46 47 48 48 49 46 46 48 50 53 53 53 53 53 52 52 52 51 56 59 61 61 63 64 64
54 53 52 51 51 51 50 50 50 49 46 44 44 45 51 50 47 46 44 43 44 46 49 48 48 48 50 53 54 54 54 55 56 57 54 52 53 54 58 62 63 63 63
54 53 53 51 51 50 49 49 46 46 47 45 44 43 43 46 46 44 44 43 45 47 48 48 48 48 50 52 54 54 54 54 56 57 58 55 53 54 58 61 62 63 63
55 54 53 53 51 50 50 47 46 48 46 48 46 45 43 43 44 44 43 46 49 49 50 49 49 49 49 52 53 52 52 54 55 57 59 59 60 60 60 61 62 62 62
53 52 52 50 50 49 48 48 48 50 49 49 48 47 46 45 46 44 45 49 50 50 50 50 50 50 50 51 53 55 55 56 56 58 59 59 60 61 61 62 62 57 57
53 53 53 51 50 50 49 50 48 47 49 48 47 51 52 50 50 50 50 50 50 50 50 50 50 50 50 50 51 52 53 55 55 55 55 56 57 59 60 60 59 58 58
53 49 51 48 49 47 47 48 48 49 47 49 48 51 48 48 49 50 50 51 51 50 49 48 48 48 49 50 50 51 51 52 53 55 56 56 56 56 57 59 59 58 58
48 48 47 46 46 47 46 47 47 47 48 46 45 48 44 49 51 50 50 51 52 52 52 49 47 46 47 47 48 48 50 50 51 52 53 55 55 55 56 57 57 57 57
48 48 46 46 46 47 46 45 45 44 44 41 43 48 47 48 52 51 50 51 51 51 51 48 45 44 46 46 47 45 44 45 49 52 51 50 50 52 53 54 56 56 56
49 48 47 46 46 44 43 41 45 44 43 42 41 42 42 47 45 46 48 49 48 47 50 42 40 40 40 40 41 40 39 38 43 45 52 49 48 47 50 53 55 55 54
46 46 44 41 42 42 41 45 45 42 40 41 40 42 41 43 44 44 45 46 47 47 46 41 41 40 39 38 37 35 33 32 35 36 44 42 40 40 41 45 52 55 55
44 42 42 44 44 44 45 44 45 43 42 42 41 42 45 42 42 42 43 45 45 44 45 43 41 40 39 38 36 34 32 31 34 33 41 41 39 39 39 39 38 39 42

GFSGL_sfc_dewp_303.txt.gz
Dewpoint
62 62 62 62 61 62 61 61 61 60 58 56 56 56 56 56 56 54 54 53 53 52 53 53 53 53 52 52 52 52 53 59 60 60 61 61 61 65 68 70 71 70 70
62 62 61 61 61 61 61 60 58 55 55 54 55 55 55 55 55 51 50 51 51 51 52 51 50 50 50 50 51 51 52 52 53 54 57 60 60 60 60 66 69 69 70
61 61 61 61 60 59 58 56 55 55 54 53 53 54 54 54 54 49 50 51 50 50 50 50 50 49 49 48 49 50 51 52 52 52 53 54 59 61 64 67 70 71 71
58 58 57 58 56 56 55 55 55 55 54 53 53 53 53 54 53 49 50 51 51 50 50 50 50 49 48 48 49 49 50 50 52 52 52 52 54 57 62 62 60 67 69
57 57 54 54 54 54 54 55 54 53 54 54 52 52 52 53 53 49 52 52 51 50 50 49 48 49 52 51 48 48 47 47 48 50 50 51 51 52 54 57 59 59 61
54 53 53 53 53 54 54 54 53 52 52 53 53 53 52 53 55 57 55 51 50 49 48 48 47 50 49 52 52 52 51 48 49 50 50 48 49 51 55 56 55 55 54
53 53 53 53 53 53 53 53 53 53 53 53 53 53 53 53 56 57 57 54 50 49 49 48 47 48 50 48 50 53 52 53 53 50 51 50 51 51 52 52 55 55 53
51 51 52 52 52 52 53 53 53 53 53 54 54 54 54 54 56 56 57 54 52 50 49 48 47 48 48 50 49 48 49 49 48 48 49 51 52 54 54 52 52 54 56
51 51 52 52 52 52 52 52 53 53 54 54 54 55 54 54 55 55 55 53 52 50 49 48 49 48 50 52 50 49 49 49 51 53 53 54 55 56 56 53 52 51 50
52 51 52 53 53 53 54 54 53 54 54 55 55 55 56 55 55 54 54 53 51 50 49 48 50 49 51 51 50 50 49 49 49 49 48 50 54 56 57 57 55 52 52
52 52 53 54 54 54 54 54 55 55 55 55 54 55 55 55 54 53 53 52 51 49 48 48 47 50 50 49 50 50 49 50 50 51 50 49 52 56 56 55 56 56 55
51 52 53 54 55 55 54 54 54 54 53 54 54 54 54 54 53 52 52 51 52 49 49 49 47 49 49 49 50 50 50 51 50 49 48 49 50 52 55 55 54 52 52
52 53 53 54 53 53 53 53 53 52 52 52 53 52 52 51 50 50 50 51 51 50 50 50 51 49 49 51 51 51 52 51 50 49 48 48 49 52 53 53 54 54 54
52 52 52 52 52 52 52 52 51 50 50 50 51 50 49 48 47 47 49 50 50 50 49 48 49 50 50 52 52 51 52 52 50 49 49 49 50 52 53 53 52 51 50
52 52 52 52 51 51 51 51 50 50 50 49 49 48 47 46 46 46 47 48 47 47 47 47 47 47 49 51 50 51 52 52 53 54 53 54 54 54 53 52 52 52 51
51 51 51 51 51 51 51 50 51 50 48 46 45 46 48 46 45 44 44 44 44 44 46 46 45 45 46 48 49 49 51 52 52 53 54 55 54 54 54 54 54 54 53
51 52 52 51 52 52 52 51 51 49 48 46 44 43 42 43 43 43 43 43 42 43 45 46 45 44 44 45 46 47 49 51 52 52 53 53 55 54 54 54 55 55 54
50 51 51 53 53 52 52 52 51 50 49 49 47 45 44 43 42 41 42 43 47 46 47 47 46 45 44 44 44 45 46 50 50 50 51 52 52 53 55 55 55 55 54
47 49 50 51 51 51 51 51 51 51 52 50 49 47 47 43 41 40 42 47 47 47 47 47 47 45 44 43 44 44 44 46 49 50 50 51 51 52 53 55 57 53 53
47 51 51 50 51 52 52 52 50 49 49 49 48 48 48 47 48 49 49 49 48 48 48 47 48 46 44 43 43 43 43 43 45 47 48 50 50 51 52 53 54 57 56
49 49 52 51 52 52 52 50 49 49 48 48 48 48 45 48 48 49 50 48 49 49 49 48 48 47 45 43 42 42 42 42 43 44 46 48 49 49 51 52 54 54 58
50 49 49 50 50 49 48 48 48 48 47 47 48 47 43 46 48 49 48 48 49 50 50 49 49 48 46 43 42 42 41 41 41 43 45 47 47 47 49 52 52 53 54
50 50 50 49 49 49 48 48 47 47 47 46 46 45 45 45 47 49 48 48 49 50 51 50 50 49 46 43 43 44 42 42 41 41 43 46 45 45 47 50 51 52 52
52 52 51 51 50 49 48 47 46 43 43 43 44 44 44 44 44 45 46 47 47 48 49 50 49 48 46 43 41 41 41 40 38 39 42 43 43 43 46 48 49 49 51
51 51 50 49 48 47 45 43 42 43 44 45 44 42 42 43 43 44 45 46 46 47 47 47 47 47 45 42 39 37 36 31 32 34 39 40 38 38 38 41 47 47 47
51 50 49 48 46 45 44 43 44 45 44 43 43 43 44 44 44 44 45 46 45 46 46 47 47 46 44 42 41 38 33 32 33 32 36 41 39 38 37 37 37 40 44

GFSGL_sfc_dewp_309.txt.gz
Dewpoint
63 63 62 62 61 61 61 61 60 61 60 59 59 59 55 54 55 56 56 54 54 54 54 54 55 55 52 49 50 50 50 50 48 49 50 52 56 56 56 57 57 57 56
63 62 61 61 61 61 61 60 60 60 61 60 58 58 55 56 55 54 52 53 53 53 54 55 54 52 55 54 49 53 52 53 50 52 52 51 53 55 55 57 54 53 55
63 62 61 61 61 60 60 59 60 59 56 55 56 56 57 57 55 54 54 53 54 54 55 55 55 56 55 52 53 52 51 51 51 49 49 49 50 50 51 53 54 57 54
61 61 60 60 60 59 58 58 57 57 55 55 55 55 55 56 56 55 55 56 56 56 56 57 56 56 55 54 53 53 52 52 52 49 49 48 49 52 50 49 49 50 50
59 59 58 58 58 58 58 58 58 57 57 57 57 57 58 57 53 57 57 57 58 58 58 57 56 55 55 55 50 53 54 51 50 50 50 50 49 49 49 49 49 49 51
59 57 58 58 58 58 58 57 57 57 57 58 57 57 58 55 56 58 58 57 58 58 58 57 56 54 52 54 53 53 53 53 53 51 51 50 51 51 50 50 50 49 49
57 58 58 58 58 58 58 58 58 58 59 59 59 59 58 59 58 58 58 59 59 58 58 57 54 48 52 51 53 54 54 55 53 53 52 51 51 52 52 52 52 52 50
57 57 58 58 58 59 59 59 59 58 59 59 59 60 60 58 58 57 58 59 59 59 58 57 56 53 52 52 52 52 52 52 52 52 52 52 52 53 53 52 52 52 53
56 57 58 58 58 58 58 59 59 59 59 59 59 60 60 60 57 56 57 58 57 58 57 57 55 52 51 52 51 52 53 51 52 54 55 55 55 55 54 53 51 52 50
56 58 58 59 59 59 60 60 60 59 59 58 59 60 59 60 56 55 56 55 56 54 56 56 54 52 51 51 50 50 51 51 52 54 54 55 55 55 53 53 52 52 50
58 58 59 59 60 60 60 60 60 60 59 59 59 60 60 59 59 54 54 56 53 52 50 51 48 50 50 50 49 50 47 51 53 53 52 52 52 53 53 53 54 52 50
57 58 58 59 58 57 61 60 60 59 58 58 58 59 54 59 56 54 53 53 55 53 52 51 50 50 49 48 48 48 49 50 46 48 49 51 52 52 52 53 54 54 54
57 58 58 58 58 59 59 59 56 57 55 54 51 50 50 52 55 53 52 52 53 52 52 53 51 50 49 47 48 49 49 44 43 45 45 46 49 52 55 56 55 56 55
57 57 57 57 57 58 55 53 53 52 52 51 51 51 50 51 52 53 53 53 52 52 53 53 51 51 50 49 47 45 43 43 45 44 45 46 46 47 48 51 53 54 53
55 55 55 53 55 54 55 53 52 56 53 52 51 52 51 50 50 50 49 51 51 50 51 51 49 48 47 47 46 45 43 43 43 45 45 45 45 45 46 48 52 54 54
54 51 50 50 50 50 51 51 52 51 49 47 47 49 52 49 47 46 45 44 44 45 48 49 49 48 47 47 47 46 44 44 43 45 46 46 45 45 44 45 47 55 52
55 54 51 50 49 50 50 49 49 50 48 47 45 45 44 47 45 44 43 42 42 44 47 49 49 49 47 48 47 47 45 44 49 45 45 46 46 45 45 44 44 50 53
55 51 52 50 50 50 49 49 49 49 49 50 48 47 45 43 42 42 42 42 48 46 48 49 50 49 49 48 47 47 47 45 44 44 45 46 46 45 44 44 45 49 53
53 51 51 51 51 50 50 50 50 51 51 52 52 50 49 45 43 42 41 49 49 50 50 50 51 51 50 50 49 49 50 48 45 43 44 44 45 45 45 44 44 44 48
51 52 51 49 49 50 50 51 51 52 52 52 52 52 52 50 50 50 50 52 52 51 50 51 52 53 53 53 52 51 50 49 48 45 44 43 43 44 44 44 44 44 45
49 49 52 49 50 50 51 51 52 52 52 52 52 52 47 51 50 49 49 50 50 51 51 52 51 50 52 53 53 52 51 49 49 47 45 43 43 43 44 44 44 44 44
49 49 48 48 49 50 51 52 52 52 52 51 50 50 45 50 49 49 50 50 50 50 51 52 52 52 52 52 52 51 50 49 50 47 45 43 43 43 44 43 43 43 43
49 49 50 50 50 50 51 51 51 51 51 50 50 48 47 46 47 47 49 49 49 50 50 50 50 50 51 50 52 53 51 51 50 49 45 44 42 43 44 43 43 43 43
49 50 50 50 50 49 49 49 49 48 50 48 46 45 46 47 51 51 50 52 53 53 53 52 52 50 49 48 47 47 46 46 46 47 45 44 41 44 44 44 42 42 42
49 50 50 51 51 51 50 50 50 49 47 46 46 48 54 54 51 52 54 54 53 54 52 52 52 50 49 49 47 46 41 33 38 39 43 43 44 44 44 42 41 41 41
50 51 51 51 50 50 52 52 49 48 46 47 52 54 52 53 54 54 54 53 53 52 52 53 50 46 42 40 41 37 33 31 37 33 41 43 43 42 42 43 43 41 40

GFSGL_sfc_dewp_312.txt.gz
Dewpoint
64 64 64 64 63 62 62 61 61 61 61 59 59 59 59 57 56 58 57 56 57 56 57 57 57 57 52 50 50 49 49 49 48 49 50 52 56 56 55 56 55 56 54
64 64 64 63 63 62 61 60 60 60 62 62 60 60 57 55 56 56 56 57 57 54 55 57 55 53 57 55 49 54 53 54 51 53 54 51 57 58 56 57 53 51 53
64 63 63 62 61 61 60 60 59 59 58 58 59 58 57 57 55 57 55 54 57 56 56 57 56 57 56 54 54 52 51 51 52 50 50 50 51 52 54 55 54 56 52
63 62 61 61 60 60 59 58 56 57 56 55 55 55 55 57 55 56 57 59 57 55 56 57 57 57 57 56 52 54 52 53 52 50 49 49 50 54 52 50 50 51 50
62 61 60 61 60 59 58 57 56 57 57 58 58 59 59 57 55 57 57 57 58 58 58 58 56 56 57 57 50 51 55 52 50 50 50 50 50 50 52 51 51 51 53
60 59 60 60 60 58 58 57 58 57 58 59 58 58 58 56 56 58 58 56 57 58 57 57 57 58 56 57 57 55 54 54 54 51 51 52 53 53 53 52 52 51 49
60 59 59 59 58 58 58 58 58 59 60 60 60 59 59 59 58 59 59 58 58 58 58 57 55 50 55 52 52 55 56 57 57 55 55 54 55 55 55 53 53 52 52
56 57 58 59 58 59 59 58 59 58 59 59 58 59 59 58 59 58 59 60 59 60 59 59 59 57 54 51 48 48 52 53 53 51 54 54 55 56 57 55 54 54 53
55 57 57 58 58 58 58 59 59 59 59 59 58 60 60 60 57 57 59 58 55 57 57 59 58 57 53 52 48 48 50 50 49 56 56 56 56 57 57 55 53 52 51
55 56 57 59 59 58 59 60 60 59 58 56 58 59 58 61 57 55 58 53 52 49 54 55 58 57 52 51 49 48 48 47 46 51 52 54 56 56 56 56 55 53 50
57 57 59 59 60 60 60 60 59 59 59 59 59 59 60 60 61 55 55 57 51 48 47 47 49 55 52 50 50 49 49 47 50 50 46 44 47 48 50 54 56 55 52
57 57 58 59 57 53 59 59 59 60 60 59 59 57 52 60 55 55 54 54 56 54 53 49 52 52 49 49 50 48 48 48 46 44 44 44 44 44 46 50 56 58 56
58 59 59 59 58 58 59 58 55 57 55 52 47 46 46 46 51 53 52 53 54 54 53 53 53 49 49 49 50 50 49 46 44 44 44 45 46 46 50 51 52 57 57
58 59 58 58 57 57 51 49 50 48 47 46 46 47 47 47 46 47 51 54 53 54 54 53 52 52 52 51 49 49 47 45 45 45 45 46 46 46 45 46 45 45 47
55 52 51 50 52 51 52 50 49 53 49 49 48 47 47 46 46 48 49 49 49 50 51 52 50 51 51 50 49 47 47 46 45 45 45 46 45 46 45 45 45 44 44
50 47 45 44 43 45 47 48 50 50 48 47 47 49 50 47 46 45 45 44 44 45 49 49 49 49 50 49 48 46 46 48 47 46 46 46 45 46 46 45 45 44 44
55 53 49 47 45 46 46 45 45 47 48 46 45 45 45 48 45 44 43 43 43 44 48 48 48 49 49 49 48 47 46 47 56 48 47 46 46 46 46 45 45 44 44
56 51 52 49 48 47 47 47 46 46 46 47 46 46 45 43 43 43 43 43 50 46 48 48 49 49 49 49 49 48 48 47 47 48 47 47 47 46 46 45 45 46 45
52 49 49 48 49 50 50 50 48 49 49 49 50 48 47 44 44 43 43 51 51 50 48 48 49 50 51 51 51 51 54 50 49 48 47 47 46 46 46 46 45 44 45
50 52 51 49 49 49 48 48 48 50 50 50 49 49 49 47 48 49 50 50 49 48 49 50 51 52 52 53 54 53 54 52 53 51 50 48 47 46 46 46 45 44 46
46 46 50 47 48 49 49 50 50 50 50 50 50 49 45 50 50 50 49 49 50 50 51 53 51 54 55 55 56 53 53 54 54 55 54 52 50 48 46 46 44 46 45
46 46 47 46 47 46 46 46 46 47 47 47 47 48 45 51 50 50 49 49 50 52 55 56 55 55 56 55 55 55 54 54 53 53 52 52 51 49 47 46 43 44 45
46 46 46 46 45 46 46 45 45 47 48 49 51 53 55 49 48 49 50 50 53 53 55 54 53 53 55 54 52 52 51 52 52 51 51 50 48 46 44 43 43 45 45
47 47 46 44 44 44 45 45 46 45 49 50 55 52 53 51 49 51 53 52 54 53 56 54 54 52 51 51 49 48 47 46 46 47 49 48 46 44 43 43 44 44 45
46 46 46 45 45 45 45 45 47 50 50 51 49 48 51 56 56 55 55 54 55 53 53 53 52 51 50 45 41 40 38 32 40 37 43 47 47 47 46 44 45 45 44
48 48 48 47 47 50 49 49 50 50 48 48 49 55 53 56 54 53 55 53 53 51 51 52 50 45 42 39 39 36 34 32 37 33 40 41 40 40 42 43 44 43 43

GFSGL_sfc_dewp_315.txt.gz
Dewpoint
66 65 65 65 65 64 63 62 62 61 61 60 58 59 60 59 59 58 59 59 59 59 61 62 61 61 54 53 52 49 49 49 49 50 52 54 61 61 58 58 56 59 55
65 66 64 64 64 63 62 61 61 61 60 60 60 61 58 58 59 57 57 55 56 58 60 60 60 54 59 62 53 59 54 57 52 56 55 53 58 61 60 62 55 52 54
64 63 62 64 63 62 61 60 61 60 60 58 59 59 57 57 57 57 59 56 58 58 59 60 60 60 59 56 57 53 50 50 53 50 52 52 52 54 55 57 57 58 53
63 63 63 62 61 60 60 59 58 58 57 57 57 58 57 56 58 58 59 59 60 60 60 60 60 60 61 59 56 57 53 53 52 50 49 50 50 55 53 52 52 52 53
63 61 62 62 62 61 60 57 56 56 55 55 56 57 56 56 53 58 58 60 61 60 60 61 59 58 58 59 52 55 56 52 49 50 49 49 50 52 53 53 53 52 53
62 61 62 61 61 59 58 57 57 57 58 59 59 58 58 55 57 59 57 54 57 58 60 60 60 60 60 60 59 59 57 53 53 52 51 53 56 55 54 55 54 53 52
61 61 60 60 59 59 58 57 57 59 59 59 59 59 58 58 59 58 59 58 57 57 59 58 57 52 55 55 56 55 57 58 57 57 56 56 57 56 57 56 56 55 54
58 58 59 59 59 59 59 59 59 58 58 58 59 58 58 56 59 58 60 60 59 60 61 62 61 61 60 58 55 49 50 51 52 49 55 55 57 58 59 57 57 56 55
56 57 57 58 57 57 57 57 58 59 61 60 60 63 62 60 57 58 60 60 57 60 60 62 60 59 58 51 53 50 52 49 49 55 56 55 55 56 56 55 53 55 52
54 56 57 58 58 57 58 59 62 62 60 54 57 59 57 60 57 56 59 56 56 50 56 57 58 59 58 52 53 50 50 49 50 48 51 55 57 56 57 58 55 51 53
56 56 57 58 59 59 59 60 59 60 61 60 60 61 61 61 62 55 55 59 53 48 45 46 48 55 55 51 50 51 51 53 51 48 50 46 49 50 46 51 57 53 51
57 57 58 59 56 55 62 61 61 61 62 62 62 60 55 63 58 56 55 54 58 56 55 50 53 53 54 52 50 49 50 50 45 44 45 44 45 45 47 51 58 57 53
58 58 58 59 57 59 61 60 55 60 55 56 50 47 46 48 53 53 52 53 55 56 56 54 53 52 50 50 50 50 51 46 46 45 44 45 46 47 57 55 58 60 61
58 58 58 57 57 58 53 52 52 52 53 48 47 47 47 55 48 53 55 53 55 55 56 55 55 54 53 53 53 53 51 49 48 47 46 47 48 47 46 47 46 46 46
55 53 53 49 50 53 56 50 48 56 48 48 48 46 46 45 46 48 47 48 47 49 52 52 50 51 52 53 54 55 53 52 49 49 49 49 47 47 48 47 47 47 46
52 47 46 45 44 43 45 48 50 48 47 45 45 46 47 46 45 44 44 44 45 46 51 50 50 51 51 51 52 52 53 53 51 50 50 50 48 47 48 47 47 48 46
54 51 48 48 47 46 46 46 45 47 47 45 44 44 44 46 45 44 43 44 44 45 50 51 51 52 51 51 52 51 51 52 57 52 50 50 51 50 49 49 50 50 46
55 51 51 48 48 47 47 47 46 46 45 46 45 45 44 43 43 43 43 45 50 48 51 50 52 52 52 52 52 52 54 54 53 53 52 51 52 48 49 49 49 50 50
52 50 49 48 48 48 48 48 48 48 48 48 51 49 47 43 43 42 43 49 52 50 49 51 52 54 58 58 58 57 57 55 55 58 55 56 54 52 51 50 48 46 47
50 52 50 48 47 48 48 47 48 51 52 52 52 52 52 51 54 58 58 57 54 53 54 55 55 58 56 58 57 58 56 57 54 55 54 55 54 56 54 53 52 50 48
47 45 50 45 46 46 49 48 48 51 51 51 51 49 47 56 57 57 57 57 57 57 57 55 53 55 58 57 57 56 53 52 52 53 53 53 54 53 52 50 49 50 49
45 44 43 43 47 49 48 48 49 49 48 49 54 54 49 60 60 58 56 57 57 58 59 58 54 53 53 56 56 53 53 54 54 53 50 50 50 52 52 52 50 47 45
45 44 44 44 44 45 47 46 47 50 49 50 49 51 52 50 51 52 54 55 57 56 59 54 54 52 57 57 55 53 49 48 48 46 45 46 47 46 46 46 45 45 44
47 47 46 45 45 46 46 46 45 46 48 49 50 50 49 50 50 52 54 56 57 57 56 55 56 53 52 49 49 45 41 39 39 37 39 39 40 42 45 46 45 45 46
45 46 47 48 48 49 48 49 47 49 50 50 50 49 51 52 54 54 56 53 54 55 54 55 55 51 50 49 42 41 38 32 39 36 38 38 37 39 39 43 46 45 45
46 47 47 50 51 52 50 50 50 49 49 49 50 51 51 50 47 45 49 47 48 46 46 45 47 47 45 40 40 37 34 32 35 33 36 35 34 37 39 39 39 38 38